W4TBD-13 Weather Reports


time (UTC)temp
C
wind
direction
speed
KPH
gust
KPH
rain 1hr
cm
rain 24hr
cm
rain mn
cm
humidity
%
barometer
mb
20260502123504 11 344 0.0 0.0 0.00 0.00 0.00 73 1003.8
20260502122504 11 346 0.0 0.0 0.00 0.00 0.00 75 1003.7
20260502122004 11 345 0.0 0.0 0.00 0.00 0.00 76 1003.7
20260502121504 11 326 0.0 0.0 0.00 0.00 0.00 77 1003.5
20260502121005 11 314 0.0 0.0 0.00 0.00 0.00 77 1003.5
20260502120504 11 339 0.0 0.0 0.00 0.00 0.00 77 1003.3
20260502115505 11 327 0.0 0.0 0.00 0.00 0.00 78 1003.4
20260502114504 11 339 0.0 0.0 0.00 0.00 0.00 79 1003.6
20260502114004 11 338 0.0 0.0 0.00 0.00 0.00 79 1003.5
20260502113505 11 338 0.0 0.0 0.00 0.00 0.00 80 1003.6
20260502113004 11 335 0.0 0.0 0.00 0.00 0.00 81 1003.6
20260502112504 10 332 0.0 0.0 0.00 0.00 0.00 83 1003.4
20260502112004 10 322 0.0 0.0 0.00 0.00 0.00 86 1003.4
20260502111004 10 310 0.0 0.0 0.00 0.00 0.00 91 1003.5
20260502110004 9 325 0.0 0.0 0.00 0.00 0.00 92 1003.5
20260502105505 9 334 0.0 0.0 0.00 0.00 0.00 93 1003.6
20260502105004 9 335 0.0 0.0 0.00 0.00 0.00 93 1003.6
20260502104505 9 335 0.0 0.0 0.00 0.00 0.00 93 1003.6
20260502104004 9 335 0.0 0.0 0.00 0.00 0.00 92 1003.7
20260502103004 9 335 0.0 0.0 0.00 0.00 0.00 93 1003.4
20260502102505 9 335 0.0 0.0 0.00 0.00 0.00 93 1003.5
20260502101504 9 335 0.0 0.0 0.00 0.00 0.00 93 1003.3
20260502101004 9 335 0.0 0.0 0.00 0.00 0.00 93 1002.8
20260502100505 9 335 0.0 0.0 0.00 0.00 0.00 93 1003.1
20260502091505 9 335 0.0 0.0 0.00 0.00 0.00 92 1002.8
20260502091004 9 335 0.0 0.0 0.00 0.00 0.00 92 1002.8
20260502071004 10 335 0.0 0.0 0.00 0.00 0.00 86 1002.1
20260502070504 10 335 0.0 0.0 0.00 0.00 0.00 86 1002.2
20260502065504 10 335 0.0 1.6 0.00 0.00 0.00 85 1002.3
20260502065003 11 335 0.0 1.6 0.00 0.00 0.00 85 1002.3
20260502064504 11 335 0.0 1.6 0.00 0.00 0.00 85 1002.3
20260502064003 11 335 0.0 0.0 0.00 0.00 0.00 84 1002.2
20260502063505 11 335 0.0 0.0 0.00 0.00 0.00 84 1002.1
20260502063004 11 335 0.0 0.0 0.00 0.00 0.00 83 1002.2
20260502062504 11 335 0.0 1.6 0.00 0.00 0.00 83 1002.4
20260502062004 11 335 0.0 1.6 0.00 0.00 0.00 83 1002.5
20260502061505 11 335 0.0 1.6 0.00 0.00 0.00 83 1002.6
20260502061004 11 335 0.0 1.6 0.00 0.00 0.00 83 1002.6
20260502060503 11 335 1.6 1.6 0.00 0.00 0.00 83 1002.6
20260502060004 11 280 0.0 1.6 0.00 0.00 0.00 82 1002.3
20260502055504 11 308 0.0 0.0 0.00 0.00 0.00 82 1002.4
20260502054503 11 229 0.0 1.6 0.00 0.00 0.00 81 1002.6
20260502054004 11 307 0.0 1.6 0.00 0.00 0.00 81 1002.5
20260502053504 11 259 0.0 3.2 0.00 0.00 0.00 81 1002.7
20260502053004 11 222 1.6 3.2 0.00 0.00 0.00 81 1002.6
20260502052504 11 224 1.6 3.2 0.00 0.00 0.00 80 1002.5
20260502052003 12 19 1.6 3.2 0.00 0.00 0.00 80 1002.4
20260502051505 12 7 1.6 3.2 0.00 0.00 0.00 80 1002.7
20260502051003 12 207 0.0 1.6 0.00 0.00 0.00 80 1002.6
20260502050004 12 290 0.0 3.2 0.00 0.00 0.00 79 1002.8
20260502045505 12 337 0.0 3.2 0.00 0.00 0.00 79 1002.8
20260502045004 12 222 1.6 3.2 0.00 0.00 0.00 79 1002.9
20260502044504 12 191 3.2 3.2 0.00 0.00 0.00 79 1002.8
20260502044004 12 247 1.6 1.6 0.00 0.00 0.00 78 1003.0
20260502043505 12 255 0.0 3.2 0.00 0.00 0.00 78 1003.2
20260502042005 12 45 1.6 3.2 0.00 0.00 0.00 77 1003.3
20260502041504 12 255 1.6 8.0 0.00 0.00 0.00 77 1003.2
20260502041004 12 207 1.6 8.0 0.00 0.00 0.00 77 1003.2
20260502040504 12 335 1.6 3.2 0.00 0.00 0.00 77 1003.1
20260502040004 12 224 1.6 3.2 0.00 0.00 0.00 76 1003.3
20260502035004 12 236 1.6 3.2 0.00 0.00 0.00 76 1003.1
20260502034503 12 80 0.0 1.6 0.00 0.00 0.00 76 1002.9
20260502034004 12 281 1.6 1.6 0.00 0.00 0.00 75 1002.9
20260502033504 13 300 0.0 3.2 0.00 0.00 0.00 75 1003.0
20260502033004 13 237 1.6 3.2 0.00 0.00 0.00 75 1003.2
20260502032504 13 0 0.0 3.2 0.00 0.00 0.00 74 1002.8
20260502032003 13 202 1.6 3.2 0.00 0.00 0.00 74 1002.7
20260502031003 13 124 0.0 4.8 0.00 0.00 0.00 73 1002.6
20260502030505 13 194 1.6 4.8 0.00 0.00 0.00 73 1002.7
20260502030004 13 174 1.6 3.2 0.00 0.00 0.00 72 1002.6
20260502025505 13 196 1.6 4.8 0.00 0.00 0.00 72 1002.5
20260502025003 13 178 1.6 4.8 0.00 0.00 0.00 71 1002.5
20260502024504 13 175 1.6 4.8 0.00 0.00 0.00 71 1002.3
20260502023504 13 286 0.0 4.8 0.00 0.00 0.00 70 1002.6
20260502023004 14 112 1.6 4.8 0.00 0.00 0.00 69 1002.6
20260502021505 14 205 1.6 4.8 0.00 0.00 0.00 68 1002.6
20260502020004 15 224 3.2 3.2 0.00 0.00 0.00 66 1002.7
20260502015005 15 199 1.6 8.0 0.00 0.00 0.00 65 1002.8
20260502014504 15 49 1.6 8.0 0.00 0.00 0.00 64 1002.9
20260502014005 15 238 1.6 4.8 0.00 0.00 0.00 64 1002.6
20260502013505 15 224 1.6 4.8 0.00 0.00 0.00 63 1002.4
20260502013005 15 121 1.6 8.0 0.00 0.00 0.00 62 1002.4
20260502012004 15 27 1.6 4.8 0.00 0.00 0.00 61 1002.4
20260502010505 15 197 1.6 9.7 0.00 0.00 0.00 59 1002.0
20260502010004 15 219 1.6 9.7 0.00 0.00 0.00 59 1001.8
20260502005505 16 232 0.0 3.2 0.00 0.00 0.00 59 1001.7
20260502005005 16 239 1.6 4.8 0.00 0.00 0.00 58 1001.9
20260502004504 16 246 3.2 4.8 0.00 0.00 0.00 57 1001.7
20260502004006 16 251 1.6 4.8 0.00 0.00 0.00 57 1001.3
20260502003504 16 194 1.6 4.8 0.00 0.00 0.00 56 1001.6
20260502003005 16 297 0.0 3.2 0.00 0.00 0.00 55 1001.4
20260502002005 16 222 1.6 3.2 0.00 0.00 0.00 54 1001.5
20260502001505 16 229 1.6 3.2 0.00 0.00 0.00 53 1001.2
20260502001005 16 202 1.6 4.8 0.00 0.00 0.00 52 1001.5
20260502000505 17 185 3.2 4.8 0.00 0.00 0.00 51 1001.6
20260502000004 17 219 3.2 4.8 0.00 0.00 0.00 50 1001.6
20260501235505 17 203 1.6 3.2 0.00 0.00 0.00 49 1001.4
20260501234505 17 239 1.6 3.2 0.00 0.00 0.00 47 1001.5
20260501234005 17 204 1.6 4.8 0.00 0.00 0.00 47 1001.6
20260501233504 17 231 1.6 8.0 0.00 0.00 0.00 45 1001.0
20260501233005 17 211 1.6 8.0 0.00 0.00 0.00 46 1001.3
20260501231506 18 62 1.6 8.0 0.00 0.00 0.00 46 1001.2
20260501231005 18 116 1.6 8.0 0.00 0.00 0.00 46 1001.2
20260501230505 18 202 1.6 8.0 0.00 0.00 0.00 45 1001.2
20260501225506 18 252 4.8 8.0 0.00 0.00 0.00 44 1001.3
20260501225004 18 223 1.6 4.8 0.00 0.00 0.00 44 1001.2
20260501224505 18 271 1.6 4.8 0.00 0.00 0.00 44 1001.4
20260501224004 18 223 1.6 4.8 0.00 0.00 0.00 43 1001.3
20260501223504 18 236 3.2 4.8 0.00 0.00 0.00 44 1001.6
20260501223005 19 195 3.2 3.2 0.00 0.00 0.00 42 1001.7
20260501222505 19 174 1.6 3.2 0.00 0.00 0.00 41 1001.8
20260501222005 19 186 1.6 1.6 0.00 0.00 0.00 41 1001.5
20260501221504 19 237 0.0 11.3 0.00 0.00 0.00 41 1001.4
20260501221004 19 303 1.6 11.3 0.00 0.00 0.00 40 1001.5
20260501220504 19 224 3.2 11.3 0.00 0.00 0.00 40 1001.5
20260501220005 19 64 3.2 8.0 0.00 0.00 0.00 39 1001.4
20260501215505 19 39 1.6 8.0 0.00 0.00 0.00 39 1001.7
20260501215005 19 214 3.2 8.0 0.00 0.00 0.00 40 1001.6
20260501214504 19 280 1.6 8.0 0.00 0.00 0.00 41 1001.6
20260501214004 19 325 0.0 8.0 0.00 0.00 0.00 41 1001.5
20260501213505 19 63 3.2 8.0 0.00 0.00 0.00 40 1001.6
20260501213004 20 121 1.6 8.0 0.00 0.00 0.00 42 1001.5
20260501212505 19 207 1.6 8.0 0.00 0.00 0.00 40 1001.4
20260501211505 20 274 3.2 9.7 0.00 0.00 0.00 39 1001.6
20260501211004 20 41 3.2 8.0 0.00 0.00 0.00 39 1001.7
20260501210506 20 247 1.6 4.8 0.00 0.00 0.00 40 1001.3
20260501210005 20 295 3.2 8.0 0.00 0.00 0.00 38 1001.6
20260501205505 20 194 1.6 8.0 0.00 0.00 0.00 37 1001.6
20260501204505 20 343 3.2 11.3 0.00 0.00 0.00 37 1001.7
20260501204004 20 206 1.6 4.8 0.00 0.00 0.00 36 1001.7
20260501203504 20 206 1.6 4.8 0.00 0.00 0.00 37 1001.9
20260501203006 20 294 3.2 4.8 0.00 0.00 0.00 37 1002.0
20260501202504 20 236 1.6 4.8 0.00 0.00 0.00 37 1001.8
20260501202005 20 24 1.6 4.8 0.00 0.00 0.00 36 1001.9
20260501201504 20 27 4.8 8.0 0.00 0.00 0.00 38 1002.3
20260501201005 20 34 3.2 8.0 0.00 0.00 0.00 37 1002.1
20260501200005 20 289 1.6 3.2 0.00 0.00 0.00 38 1002.3
20260501195504 20 340 1.6 8.0 0.00 0.00 0.00 36 1002.6
20260501195005 20 256 3.2 8.0 0.00 0.00 0.00 37 1002.6
20260501194504 20 190 3.2 8.0 0.00 0.00 0.00 35 1002.7
20260501194005 20 35 3.2 8.0 0.00 0.00 0.00 37 1002.7
20260501192504 20 70 3.2 9.7 0.00 0.00 0.00 38 1002.9
20260501192005 20 59 3.2 9.7 0.00 0.00 0.00 37 1003.0
20260501191504 20 246 3.2 8.0 0.00 0.00 0.00 39 1003.1
20260501191005 20 200 1.6 8.0 0.00 0.00 0.00 38 1003.4
20260501190504 20 57 3.2 8.0 0.00 0.00 0.00 37 1003.3
20260501190005 20 158 1.6 4.8 0.00 0.00 0.00 38 1003.3
20260501184504 19 106 1.6 4.8 0.00 0.00 0.00 38 1003.7
20260501184005 20 289 1.6 4.8 0.00 0.00 0.00 39 1003.9
20260501183004 19 254 3.2 9.7 0.00 0.00 0.00 37 1004.0
20260501182506 19 112 3.2 9.7 0.00 0.00 0.00 37 1004.0
20260501182004 18 195 3.2 4.8 0.00 0.00 0.00 38 1004.1
20260501181505 19 220 1.6 4.8 0.00 0.00 0.00 38 1004.2
20260501181004 19 198 1.6 4.8 0.00 0.00 0.00 41 1004.2
20260501180506 19 240 1.6 8.0 0.00 0.00 0.00 40 1004.4
20260501175505 19 320 1.6 4.8 0.00 0.00 0.00 40 1004.3
20260501175004 19 40 3.2 9.7 0.00 0.00 0.00 38 1004.4
20260501174505 19 67 3.2 9.7 0.00 0.00 0.00 38 1004.4
20260501174004 18 215 1.6 4.8 0.00 0.00 0.00 41 1004.5
20260501173505 19 86 1.6 4.8 0.00 0.00 0.00 38 1004.7
20260501172504 18 337 0.0 8.0 0.00 0.00 0.00 39 1004.5
20260501172004 18 30 1.6 8.0 0.00 0.00 0.00 38 1004.6
20260501171504 18 47 4.8 8.0 0.00 0.00 0.00 37 1004.7
20260501171005 18 47 1.6 4.8 0.00 0.00 0.00 37 1004.8
20260501170504 18 190 1.6 4.8 0.00 0.00 0.00 36 1004.9
20260501170005 18 250 1.6 4.8 0.00 0.00 0.00 37 1004.9
20260501165505 18 210 1.6 4.8 0.00 0.00 0.00 36 1005.0
20260501165005 18 46 1.6 4.8 0.00 0.00 0.00 35 1005.0
20260501164505 17 43 1.6 4.8 0.00 0.00 0.00 36 1005.0
20260501164004 17 3 3.2 4.8 0.00 0.00 0.00 37 1004.9
20260501163504 17 229 1.6 4.8 0.00 0.00 0.00 40 1005.1
20260501163005 17 232 1.6 4.8 0.00 0.00 0.00 37 1005.1
20260501162504 16 230 3.2 4.8 0.00 0.00 0.00 37 1005.3
20260501162004 17 9 0.0 1.6 0.00 0.00 0.00 37 1005.4
20260501161505 17 232 1.6 3.2 0.00 0.00 0.00 37 1005.6
20260501161004 16 230 0.0 3.2 0.00 0.00 0.00 39 1005.7
20260501160504 16 200 1.6 4.8 0.00 0.00 0.00 38 1005.6
20260501155504 17 39 1.6 4.8 0.00 0.00 0.00 38 1005.8
20260501155004 16 26 1.6 4.8 0.00 0.00 0.00 38 1005.7
20260501154505 17 264 1.6 4.8 0.00 0.00 0.00 39 1005.9
20260501154005 16 292 3.2 8.0 0.00 0.00 0.00 41 1005.8
20260501153504 17 227 1.6 8.0 0.00 0.00 0.00 38 1005.7
20260501152504 16 262 1.6 8.0 0.00 0.00 0.00 38 1006.0
20260501152004 16 60 1.6 8.0 0.00 0.00 0.00 38 1006.0
20260501151505 16 154 1.6 8.0 0.00 0.00 0.00 38 1006.3
20260501151004 16 311 1.6 1.6 0.00 0.00 0.00 42 1006.3
20260501150505 17 307 0.0 4.8 0.00 0.00 0.00 42 1006.4
20260501145504 16 34 3.2 4.8 0.00 0.00 0.00 39 1006.2
20260501145004 16 270 0.0 3.2 0.00 0.00 0.00 40 1006.3